User: anonymous   Login
Location: Unspecified
(0.0000°N, 0.0000°E)
Time: 06:10:30
(UTC+00:00)
Language:

Nova 2 - Orbit

View from above orbital plane
View from above orbital plane
View from above satellite
View from above satellite

Ground track
Ground track

The orbit data is extracted from the following two-line orbital elements,

1 19223U 88052A   17296.42505042 +.00000020 +00000-0 +28008-4 0  9991
2 19223 089.9608 086.5141 0028912 284.6704 127.5187 13.22658578416545
Epoch (UTC): 23 October 2017 10:12:04
Eccentricity: 0.0028912
inclination: 89.9608°
perigee height: 1153 km
apogee height: 1196 km
right ascension of ascending node: 86.5141°
argument of perigee: 284.6704°
revolutions per day: 13.22658578
mean anomaly at epoch: 127.5187°
orbit number at epoch: 41654

The dashed part of the orbit path shows where the satellite is in the earth's shadow,  

DLR